Showing default

PROPCUBE 1, 40976

Orbit data source: Space-Track

PROPCUBE 1, 40976 is a payload satellite owned by USN PGS (US) in LEO that was launched on Thu, 08 Oct 2015 UTC via an ATLAS V 401 launch vehicle from the Air Force Western Test Range (AFWTR). Payload-class satellites include a variety of spacecraft equipped with specific instruments for various scientific and technological missions. These include communications satellites like Starlink; space stations such as the ISS; scientific satellites like the Hubble; Earth observation satellites from companies like Planet Labs, Umbra, and HawkEye 360; GPS; miniature CubeSats for education and research; and military/defense satellites.

Loading next visibility...
Identifier
40976, 2015-058N
Orbit
LEO
Country
Flag of USUS
Related business
Manufacturer
Tyvak NSS
Mission
Operational Defense Technology
Bus & Motor
CUBESAT 1U, Unknown motor
Mass
1 kg wet, 1 kg dry
Launch date (UTC)
2015-10-08 (11 years ago)
Launch vehicle
ATLAS V 401
Launch site
Air Force Western Test Range (AFWTR)
Object type
Payload
Rocket body
Debris
Shape & HBR
Box, 0.1 m
Radar Cross Section
0.015 m², Medium (>0.1 m² and < 1m²)

Expand to show TLE details & history
Last TLE update: 8 hours ago

TLE from 8 hours ago
0 PROPCUBE 1
1 40976U 15058N   26125.28116438  .00004055  00000-0  38315-3 0  9991
2 40976  64.7755  68.1857 0129376  77.7135 283.8427 14.88979146109871
Epoch: 2026-05-05T06:44Z
TLE epoch observation values (Epoch: 2026-05-05T06:44:52.602Z)
Latitude
0.00001°
Longitude
103.80827°
Altitude
582.63 km
Speed
7.581 km/s
True Right ascension
04h 32m 44s
True Declination
0° 00' 00"
Sunlit
Object was in daylight at epoch
Visualization orbit readout
Latitude
Unknown
Longitude
Unknown
Altitude
Unknown
Speed
Unknown
Apparent Right ascension
Unknown
Apparent Declination
Unknown
Sunlit
N/A
Visualization observer readout
Local Sidereal Time
22:21:38
Azimuth
Unknown
Elevation
Unknown
Doppler factor
Unknown
Orbital elements
Apogee altitude
689.968 km
Perigee altitude
509.416 km
Semi-major axis
6,977.829 km
Eccentricity
0.01294
Inclination
64.7755°
RAAN
68.1857°
Arg. of periapsis
77.7135°
True anomaly
282.39778°
Mean anomaly
283.8427°
Eccentric anomaly
283.12078°
Mean motion
3.7236 °/min
Orbital period
96.68 mins
BSTAR
0.00038315
Loading maneuver chart data...
Computing Atmospheric mass density...
Loading historical data...
Loading historical data...
Loading historical data...
Loading historical data...
Loading historical data...
Loading historical data...
Loading historical data...

Documentation

Showing up to 5 results
|